Location: Clarion
(42.7316°N, 93.7330°W)
Time: 08:31:59
(UTC+00:00)

Cosmos 2297 Rocket - Pass Details

Date: 22 April 2026
Orbit: 840 x 841 km, 71.0° (Epoch: 17 May)

Event Time Altitude Azimuth Distance (km) Brightness Sun altitude
Exits shadow 10:34:46 - 200° (SSW) 3,367 4.9 -8.9°
Reaches altitude 10° 10:37:10 10° 199° (SSW) 2,447 4.2 -8.5°
Maximum altitude 10:42:47 82° 113° (ESE) 852 2.3 -7.6°
Drops below altitude 10° 10:48:26 10° 26° (NNE) 2,463 5.4 -6.7°
Sets 10:50:53 0° 26° (NNE) 3,402 6.2 -6.2°
